Regional Weather Roundup
Issued by NWS

Home | Current Version | Previous Version | Text Only | Print | Product List | Glossary On
Versions: 1 2 3 4 5 6 7 8 9 10 11 12 13 14 15 16 17 18 19 20 21 22 23 24 25 26 27 28 29 30 31 32 33 34 35 36 37 38 39 40 41 42 43 44 45 46 47 48 49 50
528
ASUS44 KLIX 211205
RWRLA
LOUISIANA WEATHER ROUNDUP
NATIONAL WEATHER SERVICE NEW ORLEANS LA
700 AM CDT TUE OCT 21 2014

NOTE: "FAIR" INDICATES FEW OR NO CLOUDS BELOW 12,000 FEET WITH NO
      SIGNIFICANT WEATHER AND/OR OBSTRUCTIONS TO VISIBILITY.
      SKY/WX - SKY CONDITION AND SIGNIFICANT WEATHER.
      TMP - AIR TEMPERATURE.    DP   - DEWPOINT TEMPERATURE.
      RH  - RELATIVE HUMIDITY.  PRES - PRESSURE.
      HX  - HEAT INDEX.         WCI  - WIND CHILL INDEX.

*  THESE STATIONS ARE NOT NWS OR FAA STATIONS AND ARE NOT UNDER
   NWS QUALITY CONTROL.

LAZ040-048-061>063-065-066-069-211300-
SOUTHEAST LOUISIANA

CITY           SKY/WX    TMP DP  RH WIND       PRES   REMARKS
N.O. AUDUBON   NOT AVBL
N.O. INTL ARPT PTCLDY    59  54  83 CALM      30.03R
6HR MIN TEMP:  59; 6HR MAX TEMP:  64;

N.O. LAKEFRONT CLEAR     68  55  63 NE12      30.03S
6HR MIN TEMP:  67; 6HR MAX TEMP:  71;

N.O. DOWNTOWN* FAIR      64  52  63 N5        30.03S
6HR MIN TEMP:  64; 6HR MAX TEMP:  70;

SLIDELL        CLEAR     51  48  89 CALM      30.04R
6HR MIN TEMP:  50; 6HR MAX TEMP:  53;

BATON ROUGE    CLEAR     55  51  86 NE5       30.05R
6HR MIN TEMP:  55; 6HR MAX TEMP:  58;

BOOTHVILLE     CLEAR     71  58  63 NE5       30.01R
6HR MIN TEMP:  70; 6HR MAX TEMP:  71;

BELLE CHASSE   PTCLDY    55  51  86 CALM      30.02R
6HR MIN TEMP:  54; 6HR MAX TEMP:  57;

BOGALUSA*        N/A     49  46  87 CALM      30.06S
6HR MIN TEMP:  49; 6HR MAX TEMP:  52;

NEW ROADS*     FAIR      53  52  96 CALM      30.05S
6HR MIN TEMP:  53; 6HR MAX TEMP:  56;

GONZALES*      FAIR      55  55 100 CALM      30.04R
6HR MIN TEMP:  54; 6HR MAX TEMP:  57;

HAMMOND*         N/A     54  48  82 CALM      30.06R
HOUMA*         CLEAR     55  55 100 N7        30.02R
PORT FOURCHON* SUNNY     70  63  78 NE6G15    30.04R

$$

LAZ041-044-053-054-211300-
SOUTHWEST LOUISIANA

CITY           SKY/WX    TMP DP  RH WIND       PRES   REMARKS
LAKE CHARLES   CLEAR     58  53  84 NE3       30.04R
6HR MIN TEMP:  55; 6HR MAX TEMP:  61;

LAFAYETTE      CLEAR     54  53  97 N5        30.04R
6HR MIN TEMP:  54; 6HR MAX TEMP:  60;

PATTERSON      NOT AVBL
SALT POINT       N/A     60  56  86 CALM      30.02R
6HR MIN TEMP:  60; 6HR MAX TEMP:  63;

NEW IBERIA     CLEAR     58  54  86 N3        30.04R
6HR MIN TEMP:  55; 6HR MAX TEMP:  63;

CHENAULT AIRPK CLEAR     57  54  88 CALM      30.05R

$$

LAZ027-028-211300-
CENTRAL LOUISIANA

CITY           SKY/WX    TMP DP  RH WIND       PRES   REMARKS
FORT POLK      CLEAR     58  53  82 NE2       30.06R
6HR MIN TEMP:  55; 6HR MAX TEMP:  61;

ALEXANDRIA INT CLEAR     54  53  97 CALM      30.06R
6HR MIN TEMP:  53; 6HR MAX TEMP:  57;

ALEXANDRIA     CLEAR     50  49  96 CALM      30.07R
6HR MIN TEMP:  50; 6HR MAX TEMP:  54;


$$

LAZ001-002-211300-
NORTHWEST LOUISIANA

CITY           SKY/WX    TMP DP  RH WIND       PRES   REMARKS
SHREVEPORT     PTCLDY    55  53  93 CALM      30.07R
6HR MIN TEMP:  55; 6HR MAX TEMP:  58;

BARKSDALE AFB  CLEAR     54  54  98 CALM      30.08R
6HR MIN TEMP:  53; 6HR MAX TEMP:  57;

DTN SHREVEPORT CLEAR     56  54  93 CALM      30.08R
6HR MIN TEMP:  54; 6HR MAX TEMP:  59;


$$

LAZ014-016-211300-
NORTHEAST LOUISIANA

CITY           SKY/WX    TMP DP  RH WIND       PRES   REMARKS
MONROE         CLEAR     55  53  93 CALM      30.09R
6HR MIN TEMP:  52; 6HR MAX TEMP:  58;

TALLULAH       CLEAR     49  47  93 S3        30.08R
6HR MIN TEMP:  47; 6HR MAX TEMP:  51;


$$




USA.gov is the U.S. government's official web portal to all federal, state and local government web resources and services.